Aeroporto :
LOGIN :

Iscrizione | Disclaimer

   EN    FR    IT 

 










Sommario :    VFR   VFR Marginale   IFR   IFR Intensivo   IFR Molto Intensivo
Visibilità : 
Base nubi : 
>= 8 km
>= 3000ft
5 / 8 km
1000 / 3000 ft
1500m / 5 km
500 / 1000 ft
800 / 1500m
200 / 500 ft
< 800m
< 200 ft
Simboli :   Temporali  Nebbia  Neve Forte  Precipitazioni Forti  Vento > 20 kt
SIGMETs :   Varie  Temporali  Ghiacco  Turbolenza  Onda orograficha  Ceneri Vulcaniche






- Altitudine del aeroporto : 14 ft
- Codice IATA : BRE


EDDW - Bremen Neuenland

ULTIMO METAR :
  • 180250Z 03003KT 350V090 CAVOK 19/17 Q1013

METARs OBSOLETI :
  • 180220Z VRB02KT CAVOK 19/17 Q1013
  • 180150Z 36003KT 340V040 CAVOK 20/17 Q1013
  • 180120Z 34005KT CAVOK 21/17 Q1013
  • 180050Z 35005KT 320V030 CAVOK 21/17 Q1014
  • 180020Z 35005KT 310V020 CAVOK 21/17 Q1014

TAF TAF EDDW
Valido dal 18 a 00 ore il 19 a 00 ore UTC


172300Z 1800/1824 34006KT CAVOK
TEMPO 1800/1805 VRB03KT
PROB40
TEMPO 1815/1824 TSRA BKN050CB
PROB30
TEMPO 1815/1821 20020G40KT 2500 TSRAGR BKN040CB



MetMap, La meteo Aeronautica in un colpo d'occhio ! - Copyright ORBIFLY Dicembre 2007 - Disclaimer

ORBIFLY MET'MAP TEAM :

Programmazione e sviluppo : Alexandra Zaïnal
Concezione : Baudouin d'Aumeries
Aiuto per la programmazione : Marc-Olivier Méhu
Supporto tecnico e logistico : Manuel Goepfert
Aiuto per la traduzione : Arnaldo La Scala

Contatto : metmap@orbifly.com




FONTI E CREDITI :

   NOAA